Location: Friaudour
(46.0460°N, 1.2873°E)
Time: 15:43:08
(UTC+00:00)

Spot 4 Rocket - Pass Details

Date: 28 October 2020
Orbit: 776 x 781 km, 98.7° (Epoch: 29 November)

Event Time Altitude Azimuth Distance (km) Brightness Sun altitude
Rises 03:02:55 0° 16° (NNE) 3,270 7.7 -36.1°
Reaches altitude 10° 03:05:15 10° 19° (NNE) 2,338 6.9 -35.7°
Enters shadow 03:07:09 23° 24° (NNE) 1,616 6.0 -35.4°
